START_TIME,STEP,MOV.,P11,t_acc.,P23,t_acc.,P27,t_acc.,A4,t_acc.
1981-08-26 15:00:23.970 ,0,0,0.,4.8,0.,4.8,0.,4.8,0.,4.8
1981-08-26 15:00:28.770 ,0,0,0.,4.8,0.,4.8,0.,4.8,0.,4.8
1981-08-26 15:00:33.570 ,0,0,0.,4.8,0.,4.8,0.,4.8,0.,4.8
1981-08-26 15:00:38.370 ,0,0,0.,4.8,0.,4.8,0.,4.8,0.,4.8
1981-08-26 15:00:43.170 ,0,0,0.,4.8,0.,4.8,0.,4.8,0.,4.8
1981-08-26 15:00:47.970 ,0,0,0.,4.8,0.,4.8,0.,4.8,0.,4.8
1981-08-26 15:00:52.770 ,0,0,0.,4.8,0.,4.8,0.,4.8,0.,4.8
1981-08-26 15:00:57.570 ,0,0,0.,4.8,0.,4.8,0.,4.8,0.,4.8
1981-08-26 15:01:02.370 ,0,0,0.,4.8,0.,4.8,0.,4.8,0.,4.8
1981-08-26 15:01:07.170 ,0,0,0.,4.8,0.,4.8,0.,4.8,0.,4.8
1981-08-26 15:01:11.970 ,0,0,0.,4.8,0.,4.8,0.,4.8,0.,4.8
1981-08-26 15:01:16.770 ,0,0,0.,4.8,0.,4.8,0.,4.8,0.,4.8
1981-08-26 15:01:21.570 ,0,0,0.,4.8,0.,4.8,0.,4.8,0.,4.8
1981-08-26 15:01:26.370 ,0,0,0.,4.8,0.,4.8,0.,4.8,0.,4.8
1981-08-26 15:01:31.170 ,0,0,0.,4.8,0.,4.8,0.,4.8,0.,4.8
1981-08-26 15:01:35.970 ,1,0,0.,4.8,0.,4.8,0.,4.8,0.,4.8
1981-08-26 15:01:40.770 ,1,0,0.,4.8,0.,4.8,0.,4.8,0.,4.8
1981-08-26 15:01:45.570 ,1,0,0.,4.8,0.,4.8,0.,4.8,0.,4.8
1981-08-26 15:01:50.370 ,1,0,0.,4.8,0.,4.8,0.,4.8,0.,4.8
1981-08-26 15:01:55.170 ,1,0,0.,4.8,0.,4.8,0.,4.8,0.,4.8
1981-08-26 15:01:59.970 ,1,0,0.,4.8,0.,4.8,0.,4.8,0.,4.8
1981-08-26 15:02:04.770 ,1,0,0.,4.8,0.,4.8,0.,4.8,0.,4.8
1981-08-26 15:02:09.570 ,1,0,0.,4.8,0.,4.8,0.,4.8,0.,4.8
1981-08-26 15:02:14.370 ,1,0,0.,4.8,0.,4.8,0.,4.8,0.,4.8
1981-08-26 15:02:19.170 ,1,0,0.,4.8,0.,4.8,0.,4.8,0.,4.8
1981-08-26 15:02:23.970 ,2,0,0.,4.8,0.,4.8,0.,4.8,0.,4.8
1981-08-26 15:02:28.770 ,2,0,0.,4.8,0.,4.8,0.,4.8,0.,4.8
1981-08-26 15:02:33.570 ,2,0,0.,4.8,0.,4.8,0.,4.8,0.,4.8
1981-08-26 15:02:38.370 ,2,0,0.,4.8,0.,4.8,0.,4.8,0.,4.8
1981-08-26 15:02:43.170 ,2,0,0.,4.8,0.,4.8,0.,4.8,0.,4.8
1981-08-26 15:02:47.970 ,2,0,0.,4.8,0.,4.8,0.,4.8,0.,4.8
1981-08-26 15:02:52.770 ,2,0,0.,4.8,0.,4.8,0.,4.8,0.,4.8
1981-08-26 15:02:57.570 ,2,0,0.,4.8,0.,4.8,0.,4.8,0.,4.8
1981-08-26 15:03:02.370 ,2,0,0.,4.8,0.,4.8,0.,4.8,0.,4.8
1981-08-26 15:03:07.170 ,2,0,0.,4.8,0.,4.8,0.,4.8,0.,4.8
1981-08-26 15:03:11.970 ,3,0,0.,4.8,0.,4.8,0.,4.8,0.,4.8
1981-08-26 15:03:16.770 ,3,0,0.,4.8,0.,4.8,0.,4.8,0.,4.8
1981-08-26 15:03:21.570 ,3,0,0.,4.8,0.,4.8,0.,4.8,0.,4.8
1981-08-26 15:03:26.370 ,3,0,0.,4.8,0.,4.8,0.,4.8,0.,4.8
1981-08-26 15:03:31.170 ,3,0,0.,4.8,0.,4.8,0.,4.8,0.,4.8
1981-08-26 15:03:35.970 ,3,0,0.,4.8,0.,4.8,0.,4.8,0.,4.8
1981-08-26 15:03:40.770 ,3,0,0.,4.8,0.,4.8,0.,4.8,0.,4.8
1981-08-26 15:03:45.570 ,3,0,0.,4.8,0.,4.8,0.,4.8,0.,4.8
1981-08-26 15:03:50.370 ,3,0,0.,4.8,0.,4.8,0.,4.8,0.,4.8
1981-08-26 15:03:55.170 ,3,0,0.,4.8,0.,4.8,0.,4.8,0.,4.8
1981-08-26 15:03:59.970 ,4,0,0.,4.8,0.,4.8,0.,4.8,0.,4.8
1981-08-26 15:04:04.770 ,4,0,0.,4.8,0.,4.8,0.,4.8,0.,4.8
1981-08-26 15:04:09.570 ,4,0,0.,4.8,0.,4.8,0.,4.8,0.,4.8
1981-08-26 15:04:14.370 ,4,0,0.,4.8,0.,4.8,0.,4.8,0.,4.8
1981-08-26 15:04:19.170 ,4,0,0.,4.8,0.,4.8,0.,4.8,0.,4.8
1981-08-26 15:04:23.970 ,4,0,0.,4.8,0.,4.8,0.,4.8,0.,4.8
1981-08-26 15:04:28.770 ,4,0,0.,4.8,0.,4.8,0.,4.8,0.,4.8
1981-08-26 15:04:33.570 ,4,0,0.,4.8,0.,4.8,0.,4.8,0.,4.8
1981-08-26 15:04:38.370 ,4,0,0.,4.8,0.,4.8,0.,4.8,0.,4.8
1981-08-26 15:04:43.170 ,4,0,0.,4.8,0.,4.8,0.,4.8,0.,4.8
1981-08-26 15:04:47.970 ,5,0,0.,4.8,0.,4.8,0.,4.8,0.,4.8
1981-08-26 15:04:52.770 ,5,0,0.,4.8,0.,4.8,0.,4.8,0.,4.8
1981-08-26 15:04:57.570 ,5,0,0.,4.8,0.,4.8,0.,4.8,0.,4.8
1981-08-26 15:05:02.370 ,5,0,0.,4.8,0.,4.8,0.,4.8,0.,4.8
1981-08-26 15:05:07.170 ,5,0,0.,4.8,0.,4.8,0.,4.8,0.,4.8
1981-08-26 15:05:11.970 ,5,0,0.,4.8,0.,4.8,0.,4.8,0.,4.8
1981-08-26 15:05:16.770 ,5,0,0.,4.8,0.,4.8,0.,4.8,0.,4.8
1981-08-26 15:05:21.570 ,5,0,0.,4.8,0.,4.8,0.,4.8,0.,4.8
1981-08-26 15:05:26.370 ,5,0,0.,4.8,0.,4.8,0.,4.8,0.,4.8
1981-08-26 15:05:31.170 ,5,0,0.,4.8,0.,4.8,0.,4.8,0.,4.8
1981-08-26 15:05:35.970 ,6,0,0.,4.8,0.,4.8,0.,4.8,0.,4.8
1981-08-26 15:05:40.770 ,6,0,0.,4.8,0.,4.8,0.,4.8,0.,4.8
1981-08-26 15:05:45.570 ,6,0,0.,4.8,0.,4.8,0.,4.8,0.,4.8
1981-08-26 15:05:50.370 ,6,0,0.,4.8,0.,4.8,0.,4.8,0.,4.8
1981-08-26 15:05:55.170 ,6,0,0.,4.8,0.,4.8,0.,4.8,0.,4.8
1981-08-26 15:05:59.970 ,6,0,0.,4.8,0.,4.8,0.,4.8,0.,4.8
1981-08-26 15:06:04.770 ,6,0,0.,4.8,0.,4.8,0.,4.8,0.,4.8
1981-08-26 15:06:09.570 ,6,0,0.,4.8,0.,4.8,0.,4.8,0.,4.8
1981-08-26 15:06:14.370 ,6,0,0.,4.8,0.,4.8,0.,4.8,0.,4.8
1981-08-26 15:06:19.170 ,6,0,0.,4.8,0.,4.8,0.,4.8,0.,4.8
1981-08-26 15:06:23.970 ,7,0,0.,4.8,0.,4.8,0.,4.8,0.,4.8
1981-08-26 15:06:28.770 ,7,0,0.,4.8,0.,4.8,0.,4.8,0.,4.8
1981-08-26 15:06:33.570 ,7,0,0.,4.8,0.,4.8,0.,4.8,0.,4.8
1981-08-26 15:06:38.370 ,7,0,0.,4.8,0.,4.8,0.,4.8,0.,4.8
1981-08-26 15:06:43.170 ,7,0,0.,4.8,0.,4.8,0.,4.8,0.,4.8
1981-08-26 15:06:47.970 ,7,0,0.,4.8,0.,4.8,0.,4.8,0.,4.8
1981-08-26 15:06:52.770 ,7,0,0.,4.8,0.,4.8,0.,4.8,0.,4.8
1981-08-26 15:06:57.570 ,7,0,0.,4.8,0.,4.8,0.,4.8,0.,4.8
1981-08-26 15:07:02.370 ,7,0,0.,4.8,0.,4.8,0.,4.8,0.,4.8
1981-08-26 15:07:07.170 ,7,0,0.,4.8,0.,4.8,0.,4.8,0.,4.8
1981-08-26 15:07:11.970 ,7,0,0.,4.8,0.,4.8,0.,4.8,0.,4.8
1981-08-26 15:07:16.770 ,7,0,0.,4.8,0.,4.8,0.,4.8,0.,4.8
1981-08-26 15:07:21.570 ,7,0,0.,4.8,0.,4.8,0.,4.8,0.,4.8
1981-08-26 15:07:26.370 ,7,0,0.,4.8,0.,4.8,0.,4.8,0.,4.8
1981-08-26 15:07:31.170 ,7,0,0.,4.8,0.,4.8,0.,4.8,0.,4.8
1981-08-26 15:07:35.970 ,7,0,0.,4.8,0.,4.8,0.,4.8,0.,4.8
1981-08-26 15:07:40.770 ,7,0,0.,4.8,0.,4.8,0.,4.8,0.,4.8
1981-08-26 15:07:45.570 ,7,0,0.,4.8,0.,4.8,0.,4.8,0.,4.8
1981-08-26 15:07:50.370 ,7,0,0.,4.8,0.,4.8,0.,4.8,0.,4.8
1981-08-26 15:07:55.170 ,7,0,0.,4.8,0.,4.8,0.,4.8,0.,4.8
1981-08-26 15:07:59.970 ,6,0,0.,4.8,0.,4.8,0.,4.8,0.,4.8
1981-08-26 15:08:04.770 ,6,0,0.,4.8,0.,4.8,0.,4.8,0.,4.8
1981-08-26 15:08:09.570 ,6,0,0.,4.8,0.,4.8,0.,4.8,0.,4.8
1981-08-26 15:08:14.370 ,6,0,0.,4.8,0.,4.8,0.,4.8,0.,4.8
1981-08-26 15:08:19.170 ,6,0,0.,4.8,0.,4.8,0.,4.8,0.,4.8
1981-08-26 15:08:23.970 ,6,0,0.,4.8,0.,4.8,0.,4.8,0.,4.8
1981-08-26 15:08:28.770 ,6,0,0.,4.8,0.,4.8,0.,4.8,0.,4.8
1981-08-26 15:08:33.570 ,6,0,0.,4.8,0.,4.8,0.,4.8,0.,4.8
1981-08-26 15:08:38.370 ,6,0,0.,4.8,0.,4.8,0.,4.8,0.,4.8
1981-08-26 15:08:43.170 ,6,0,0.,4.8,0.,4.8,0.,4.8,0.,4.8
1981-08-26 15:08:47.970 ,5,0,0.,4.8,0.,4.8,0.,4.8,0.,4.8
1981-08-26 15:08:52.770 ,5,0,0.,4.8,0.,4.8,0.,4.8,0.,4.8
1981-08-26 15:08:57.570 ,5,0,0.,4.8,0.,4.8,0.,4.8,0.,4.8
1981-08-26 15:09:02.370 ,5,0,0.,4.8,0.,4.8,0.,4.8,0.,4.8
1981-08-26 15:09:07.170 ,5,0,0.,4.8,0.,4.8,0.,4.8,0.,4.8
1981-08-26 15:09:11.970 ,5,0,0.,4.8,0.,4.8,0.,4.8,0.,4.8
1981-08-26 15:09:16.770 ,5,0,0.,4.8,0.,4.8,0.,4.8,0.,4.8
1981-08-26 15:09:21.570 ,5,0,0.,4.8,0.,4.8,0.,4.8,0.,4.8
1981-08-26 15:09:26.370 ,5,0,0.,4.8,0.,4.8,0.,4.8,0.,4.8
1981-08-26 15:09:31.170 ,5,0,0.,4.8,0.,4.8,0.,4.8,0.,4.8
1981-08-26 15:09:35.970 ,4,0,0.,4.8,0.,4.8,0.,4.8,0.,4.8
1981-08-26 15:09:40.770 ,4,0,0.,4.8,0.,4.8,0.,4.8,0.,4.8
1981-08-26 15:09:45.570 ,4,0,0.,4.8,0.,4.8,0.,4.8,0.,4.8
1981-08-26 15:09:50.370 ,4,0,0.,4.8,0.,4.8,0.,4.8,0.,4.8
1981-08-26 15:09:55.170 ,4,0,0.,4.8,0.,4.8,0.,4.8,0.,4.8
1981-08-26 15:09:59.970 ,4,0,0.,4.8,0.,4.8,0.,4.8,0.,4.8
1981-08-26 15:10:04.770 ,4,0,0.,4.8,0.,4.8,0.,4.8,0.,4.8
1981-08-26 15:10:09.570 ,4,0,0.,4.8,0.,4.8,0.,4.8,0.,4.8
1981-08-26 15:10:14.370 ,4,0,0.,4.8,0.,4.8,0.,4.8,0.,4.8
1981-08-26 15:10:19.170 ,4,0,0.,4.8,0.,4.8,0.,4.8,0.,4.8
1981-08-26 15:10:23.970 ,3,0,0.,4.8,0.,4.8,0.,4.8,0.,4.8
1981-08-26 15:10:28.770 ,3,0,0.,4.8,0.,4.8,0.,4.8,0.,4.8
1981-08-26 15:10:33.570 ,3,0,0.,4.8,0.,4.8,0.,4.8,0.,4.8
1981-08-26 15:10:38.370 ,3,0,0.,4.8,0.,4.8,0.,4.8,0.,4.8
1981-08-26 15:10:43.170 ,3,0,0.,4.8,0.,4.8,0.,4.8,0.,4.8
1981-08-26 15:10:47.970 ,3,0,0.,4.8,0.,4.8,0.,4.8,0.,4.8
1981-08-26 15:10:52.770 ,3,0,0.,4.8,0.,4.8,0.,4.8,0.,4.8
1981-08-26 15:10:57.570 ,3,0,0.,4.8,0.,4.8,0.,4.8,0.,4.8
1981-08-26 15:11:02.370 ,3,0,0.,4.8,0.,4.8,0.,4.8,0.,4.8
1981-08-26 15:11:07.170 ,3,0,0.,4.8,0.,4.8,0.,4.8,0.,4.8
1981-08-26 15:11:11.970 ,2,0,0.,4.8,0.,4.8,0.,4.8,0.,4.8
1981-08-26 15:11:16.770 ,2,0,0.,4.8,0.,4.8,0.,4.8,0.,4.8
1981-08-26 15:11:21.570 ,2,0,0.,4.8,0.,4.8,0.,4.8,0.,4.8
1981-08-26 15:11:26.370 ,2,0,0.,4.8,0.,4.8,0.,4.8,0.,4.8
1981-08-26 15:11:31.170 ,2,0,0.,4.8,0.,4.8,0.,4.8,0.,4.8
1981-08-26 15:11:35.970 ,2,0,0.,4.8,0.,4.8,0.,4.8,0.,4.8
1981-08-26 15:11:40.770 ,2,0,0.,4.8,0.,4.8,0.,4.8,0.,4.8
1981-08-26 15:11:45.570 ,2,0,0.,4.8,0.,4.8,0.,4.8,0.,4.8
1981-08-26 15:11:50.370 ,2,0,0.,4.8,0.,4.8,0.,4.8,0.,4.8
1981-08-26 15:11:55.170 ,2,0,0.,4.8,0.,4.8,0.,4.8,0.,4.8
1981-08-26 15:11:59.970 ,1,0,0.,4.8,0.,4.8,0.,4.8,0.,4.8
1981-08-26 15:12:04.770 ,1,0,0.,4.8,0.,4.8,0.,4.8,0.,4.8
1981-08-26 15:12:09.570 ,1,0,0.,4.8,0.,4.8,0.,4.8,0.,4.8
1981-08-26 15:12:14.370 ,1,0,0.,4.8,0.,4.8,0.,4.8,0.,4.8
1981-08-26 15:12:19.170 ,1,0,0.,4.8,0.,4.8,0.,4.8,0.,4.8
1981-08-26 15:12:23.970 ,1,0,0.,4.8,0.,4.8,0.,4.8,0.,4.8
1981-08-26 15:12:28.770 ,1,0,0.,4.8,0.,4.8,0.,4.8,0.,4.8
1981-08-26 15:12:33.570 ,1,0,0.,4.8,0.,4.8,0.,4.8,0.,4.8
1981-08-26 15:12:38.370 ,1,0,0.,4.8,0.,4.8,0.,4.8,0.,4.8
1981-08-26 15:12:43.170 ,1,0,0.,4.8,0.,4.8,0.,4.8,0.,4.8
1981-08-26 15:12:47.970 ,0,0,0.,4.8,0.,4.8,0.,4.8,0.,4.8
1981-08-26 15:12:52.770 ,0,0,0.,4.8,0.,4.8,0.,4.8,0.,4.8
1981-08-26 15:12:57.570 ,0,0,0.,4.8,0.,4.8,0.,4.8,0.,4.8
1981-08-26 15:13:02.370 ,0,0,0.,4.8,0.,4.8,0.,4.8,0.,4.8
1981-08-26 15:13:07.170 ,0,0,0.,4.8,0.,4.8,0.,4.8,0.,4.8
1981-08-26 15:13:11.970 ,0,0,0.,4.8,0.,4.8,0.,4.8,0.,4.8
1981-08-26 15:13:16.770 ,0,0,0.,4.8,0.,4.8,0.,4.8,0.,4.8
1981-08-26 15:13:21.570 ,0,0,0.,4.8,0.,4.8,0.,4.8,0.,4.8
1981-08-26 15:13:26.370 ,0,0,0.,4.8,0.,4.8,0.,4.8,0.,4.8
1981-08-26 15:13:31.170 ,0,0,0.,4.8,0.,4.8,0.,4.8,0.,4.8
1981-08-26 15:13:35.970 ,0,0,0.,4.8,0.,4.8,0.,4.8,0.,4.8
1981-08-26 15:13:40.770 ,0,0,0.,4.8,0.,4.8,0.,4.8,0.,4.8
1981-08-26 15:13:45.570 ,0,0,0.,4.8,0.,4.8,0.,4.8,0.,4.8
1981-08-26 15:13:50.370 ,0,0,0.,4.8,0.,4.8,0.,4.8,0.,4.8
1981-08-26 15:13:55.170 ,0,0,0.,4.8,0.,4.8,0.,4.8,0.,4.8
1981-08-26 15:13:59.970 ,0,0,0.,4.8,0.,4.8,0.,4.8,0.,4.8
1981-08-26 15:14:04.770 ,0,0,0.,4.8,0.,4.8,0.,4.8,0.,4.8
1981-08-26 15:14:09.570 ,0,0,0.,4.8,0.,4.8,0.,4.8,0.,4.8
1981-08-26 15:14:14.370 ,0,0,0.,4.8,0.,4.8,0.,4.8,0.,4.8
1981-08-26 15:14:19.170 ,0,0,0.,4.8,0.,4.8,0.,4.8,0.,4.8
1981-08-26 15:14:23.970 ,1,0,0.,4.8,0.,4.8,0.,4.8,0.,4.8
1981-08-26 15:14:28.770 ,1,0,0.,4.8,0.,4.8,0.,4.8,0.,4.8
1981-08-26 15:14:33.570 ,1,0,0.,4.8,0.,4.8,0.,4.8,0.,4.8
1981-08-26 15:14:38.370 ,1,0,0.,4.8,0.,4.8,0.,4.8,0.,4.8
1981-08-26 15:14:43.170 ,1,0,0.,4.8,0.,4.8,0.,4.8,0.,4.8
1981-08-26 15:14:47.970 ,1,0,0.,4.8,0.,4.8,0.,4.8,0.,4.8
1981-08-26 15:14:52.770 ,1,0,0.,4.8,0.,4.8,0.,4.8,0.,4.8
1981-08-26 15:14:57.570 ,1,0,0.,4.8,0.,4.8,0.,4.8,0.,4.8
1981-08-26 15:15:02.370 ,1,0,0.,4.8,0.,4.8,0.,4.8,0.,4.8
1981-08-26 15:15:07.170 ,1,0,0.,4.8,0.,4.8,0.,4.8,0.,4.8
1981-08-26 15:15:11.970 ,2,0,0.,4.8,0.,4.8,0.,4.8,0.,4.8
1981-08-26 15:15:16.770 ,2,0,0.,4.8,0.,4.8,0.,4.8,0.,4.8
1981-08-26 15:15:21.570 ,2,0,0.,4.8,0.,4.8,0.,4.8,0.,4.8
1981-08-26 15:15:26.370 ,2,0,0.,4.8,0.,4.8,0.,4.8,0.,4.8
1981-08-26 15:15:31.170 ,2,0,0.,4.8,0.,4.8,0.,4.8,0.,4.8
1981-08-26 15:15:35.970 ,2,0,0.,4.8,0.,4.8,0.,4.8,0.,4.8
1981-08-26 15:15:40.770 ,2,0,0.,4.8,0.,4.8,0.,4.8,0.,4.8
1981-08-26 15:15:45.570 ,2,0,0.,4.8,0.,4.8,0.,4.8,0.,4.8
1981-08-26 15:15:50.370 ,2,0,0.,4.8,0.,4.8,0.,4.8,0.,4.8
1981-08-26 15:15:55.170 ,2,0,0.,4.8,0.,4.8,0.,4.8,0.,4.8
1981-08-26 15:15:59.970 ,3,0,0.,4.8,0.,4.8,0.,4.8,0.,4.8
1981-08-26 15:16:04.770 ,3,0,0.,4.8,0.,4.8,0.,4.8,0.,4.8
1981-08-26 15:16:09.570 ,3,0,0.,4.8,0.,4.8,0.,4.8,0.,4.8
1981-08-26 15:16:14.370 ,3,0,0.,4.8,0.,4.8,0.,4.8,0.,4.8
1981-08-26 15:16:19.170 ,3,0,0.,4.8,0.,4.8,0.,4.8,0.,4.8
1981-08-26 15:16:23.970 ,3,0,0.,4.8,0.,4.8,0.,4.8,0.,4.8
1981-08-26 15:16:28.770 ,3,0,0.,4.8,0.,4.8,0.,4.8,0.,4.8
1981-08-26 15:16:33.570 ,3,0,0.,4.8,0.,4.8,0.,4.8,0.,4.8
1981-08-26 15:16:38.370 ,3,0,0.,4.8,0.,4.8,0.,4.8,0.,4.8
1981-08-26 15:16:43.170 ,3,0,0.,4.8,0.,4.8,0.,4.8,0.,4.8
1981-08-26 15:16:47.970 ,4,0,0.,4.8,0.,4.8,0.,4.8,0.,4.8
1981-08-26 15:16:52.770 ,4,0,0.,4.8,0.,4.8,0.,4.8,0.,4.8
1981-08-26 15:16:57.570 ,4,0,0.,4.8,0.,4.8,0.,4.8,0.,4.8
1981-08-26 15:17:02.370 ,4,0,0.,4.8,0.,4.8,0.,4.8,0.,4.8
1981-08-26 15:17:07.170 ,4,0,0.,4.8,0.,4.8,0.,4.8,0.,4.8
1981-08-26 15:17:11.970 ,4,0,0.,4.8,0.,4.8,0.,4.8,0.,4.8
1981-08-26 15:17:16.770 ,4,0,0.,4.8,0.,4.8,0.,4.8,0.,4.8
1981-08-26 15:17:21.570 ,4,0,0.,4.8,0.,4.8,0.,4.8,0.,4.8
1981-08-26 15:17:26.370 ,4,0,0.,4.8,0.,4.8,0.,4.8,0.,4.8
1981-08-26 15:17:31.170 ,4,0,0.,4.8,0.,4.8,0.,4.8,0.,4.8
1981-08-26 15:17:35.970 ,5,0,0.,4.8,0.,4.8,0.,4.8,0.,4.8
1981-08-26 15:17:40.770 ,5,0,0.,4.8,0.,4.8,0.,4.8,0.,4.8
1981-08-26 15:17:45.570 ,5,0,0.,4.8,0.,4.8,0.,4.8,0.,4.8
1981-08-26 15:17:50.370 ,5,0,0.,4.8,0.,4.8,0.,4.8,0.,4.8
1981-08-26 15:17:55.170 ,5,0,0.,4.8,0.,4.8,0.,4.8,0.,4.8
1981-08-26 15:17:59.970 ,5,0,0.,4.8,0.,4.8,0.,4.8,0.,4.8
1981-08-26 15:18:04.770 ,5,0,0.,4.8,0.,4.8,0.,4.8,0.,4.8
1981-08-26 15:18:09.570 ,5,0,0.,4.8,0.,4.8,0.,4.8,0.,4.8
1981-08-26 15:18:14.370 ,5,0,0.,4.8,0.,4.8,0.,4.8,0.,4.8
1981-08-26 15:18:19.170 ,5,0,0.,4.8,0.,4.8,0.,4.8,0.,4.8
1981-08-26 15:18:23.970 ,6,0,0.,4.8,0.,4.8,0.,4.8,0.,4.8
1981-08-26 15:18:28.770 ,6,0,0.,4.8,0.,4.8,0.,4.8,0.,4.8
1981-08-26 15:18:33.570 ,6,0,0.,4.8,0.,4.8,0.,4.8,0.,4.8
1981-08-26 15:18:38.370 ,6,0,0.,4.8,0.,4.8,0.,4.8,0.,4.8
1981-08-26 15:18:43.170 ,6,0,0.,4.8,0.,4.8,0.,4.8,0.,4.8
1981-08-26 15:18:47.970 ,6,0,0.,4.8,0.,4.8,0.,4.8,0.,4.8
1981-08-26 15:18:52.770 ,6,0,0.,4.8,0.,4.8,0.,4.8,0.,4.8
1981-08-26 15:18:57.570 ,6,0,0.,4.8,0.,4.8,0.,4.8,0.,4.8
1981-08-26 15:19:02.370 ,6,0,0.,4.8,0.,4.8,0.,4.8,0.,4.8
1981-08-26 15:19:07.170 ,6,0,0.,4.8,0.,4.8,0.,4.8,0.,4.8
1981-08-26 15:19:11.970 ,7,0,0.,4.8,0.,4.8,0.,4.8,0.,4.8
1981-08-26 15:19:16.770 ,7,0,0.,4.8,0.,4.8,0.,4.8,0.,4.8
1981-08-26 15:19:21.570 ,7,0,0.,4.8,0.,4.8,0.,4.8,0.,4.8
1981-08-26 15:19:26.370 ,7,0,0.,4.8,0.,4.8,0.,4.8,0.,4.8
1981-08-26 15:19:31.170 ,7,0,0.,4.8,0.,4.8,0.,4.8,0.,4.8
1981-08-26 15:19:35.970 ,7,0,0.,4.8,0.,4.8,0.,4.8,0.,4.8
1981-08-26 15:19:40.770 ,7,0,0.,4.8,0.,4.8,0.,4.8,0.,4.8
1981-08-26 15:19:45.570 ,7,0,0.,4.8,0.,4.8,0.,4.8,0.,4.8
1981-08-26 15:19:50.370 ,7,0,0.,4.8,0.,4.8,0.,4.8,0.,4.8
1981-08-26 15:19:55.170 ,7,0,0.,4.8,0.,4.8,0.,4.8,0.,4.8
1981-08-26 15:19:59.970 ,7,0,0.,4.8,0.,4.8,0.,4.8,0.,4.8
1981-08-26 15:20:04.770 ,7,0,0.,4.8,0.,4.8,0.,4.8,0.,4.8
1981-08-26 15:20:09.570 ,7,0,0.,4.8,0.,4.8,0.,4.8,0.,4.8
1981-08-26 15:20:14.370 ,7,0,0.,4.8,0.,4.8,0.,4.8,0.,4.8
1981-08-26 15:20:19.170 ,7,0,0.,4.8,0.,4.8,0.,4.8,0.,4.8
1981-08-26 15:20:23.970 ,7,0,0.,4.8,0.,4.8,0.,4.8,0.,4.8
1981-08-26 15:20:28.770 ,7,0,0.,4.8,0.,4.8,0.,4.8,0.,4.8
1981-08-26 15:20:33.570 ,7,0,0.,4.8,0.,4.8,0.,4.8,0.,4.8
1981-08-26 15:20:38.370 ,7,0,0.,4.8,0.,4.8,0.,4.8,0.,4.8
1981-08-26 15:20:43.170 ,7,0,0.,4.8,0.,4.8,0.,4.8,0.,4.8
1981-08-26 15:20:47.970 ,6,0,0.,4.8,0.,4.8,0.,4.8,0.,4.8
1981-08-26 15:20:52.770 ,6,0,0.,4.8,0.,4.8,0.,4.8,0.,4.8
1981-08-26 15:20:57.570 ,6,0,0.,4.8,0.,4.8,0.,4.8,0.,4.8
1981-08-26 15:21:02.370 ,6,0,0.,4.8,0.,4.8,0.,4.8,0.,4.8
1981-08-26 15:21:07.170 ,6,0,0.,4.8,0.,4.8,0.,4.8,0.,4.8
1981-08-26 15:21:11.970 ,6,0,0.,4.8,0.,4.8,0.,4.8,0.,4.8
1981-08-26 15:21:16.770 ,6,0,0.,4.8,0.,4.8,0.,4.8,0.,4.8
1981-08-26 15:21:21.570 ,6,0,0.,4.8,0.,4.8,0.,4.8,0.,4.8
1981-08-26 15:21:26.370 ,6,0,,0,,0,,0,,0
1981-08-26 15:21:31.170 ,6,0,0.,4.8,0.,4.8,0.,4.8,0.,4.8
1981-08-26 15:21:35.970 ,5,0,0.,4.8,0.,4.8,0.,4.8,0.,4.8
1981-08-26 15:21:40.770 ,5,0,0.,4.8,0.,4.8,0.,4.8,0.,4.8
1981-08-26 15:21:45.570 ,5,0,0.,4.8,0.,4.8,0.,4.8,0.,4.8
1981-08-26 15:21:50.370 ,5,0,0.,4.8,0.,4.8,0.,4.8,0.,4.8
1981-08-26 15:21:55.170 ,5,0,0.,4.8,0.,4.8,0.,4.8,0.,4.8
1981-08-26 15:21:59.970 ,5,0,0.,4.8,0.,4.8,0.,4.8,0.,4.8
1981-08-26 15:22:04.770 ,5,0,0.,4.8,0.,4.8,0.,4.8,0.,4.8
1981-08-26 15:22:09.570 ,5,0,0.,4.8,0.,4.8,0.,4.8,0.,4.8
1981-08-26 15:22:14.370 ,5,0,0.,4.8,0.,4.8,0.,4.8,0.,4.8
1981-08-26 15:22:19.170 ,5,0,0.,4.8,0.,4.8,0.,4.8,0.,4.8
1981-08-26 15:22:23.970 ,4,0,0.,4.8,0.,4.8,0.,4.8,0.,4.8
1981-08-26 15:22:28.770 ,4,0,0.,4.8,0.,4.8,0.,4.8,0.,4.8
1981-08-26 15:22:33.570 ,4,0,0.,4.8,0.,4.8,0.,4.8,0.,4.8
1981-08-26 15:22:38.370 ,4,0,0.,4.8,0.,4.8,0.,4.8,0.,4.8
1981-08-26 15:22:43.170 ,4,0,0.,4.8,0.,4.8,0.,4.8,0.,4.8
1981-08-26 15:22:47.970 ,4,0,0.,4.8,0.,4.8,0.,4.8,0.,4.8
1981-08-26 15:22:52.770 ,4,0,0.,4.8,0.,4.8,0.,4.8,0.,4.8
1981-08-26 15:22:57.570 ,4,0,0.,4.8,0.,4.8,0.,4.8,0.,4.8
1981-08-26 15:23:02.370 ,4,0,0.,4.8,0.,4.8,0.,4.8,0.,4.8
1981-08-26 15:23:07.170 ,4,0,0.,4.8,0.,4.8,0.,4.8,0.,4.8
1981-08-26 15:23:11.970 ,3,0,0.,4.8,0.,4.8,0.,4.8,0.,4.8
1981-08-26 15:23:16.770 ,3,0,0.,4.8,0.,4.8,0.,4.8,0.,4.8
1981-08-26 15:23:21.570 ,3,0,0.,4.8,0.,4.8,0.,4.8,0.,4.8
1981-08-26 15:23:26.370 ,3,0,0.,4.8,0.,4.8,0.,4.8,0.,4.8
1981-08-26 15:23:31.170 ,3,0,0.,4.8,0.,4.8,0.,4.8,0.,4.8
1981-08-26 15:23:35.970 ,3,0,0.,4.8,0.,4.8,0.,4.8,0.,4.8
1981-08-26 15:23:40.770 ,3,0,0.,4.8,0.,4.8,0.,4.8,0.,4.8
1981-08-26 15:23:45.570 ,3,0,0.,4.8,0.,4.8,0.,4.8,0.,4.8
1981-08-26 15:23:50.370 ,3,0,0.,4.8,0.,4.8,0.,4.8,0.,4.8
1981-08-26 15:23:55.170 ,3,0,0.,4.8,0.,4.8,0.,4.8,0.,4.8
1981-08-26 15:23:59.970 ,2,0,0.,4.8,0.,4.8,0.,4.8,0.,4.8
1981-08-26 15:24:04.770 ,2,0,0.,4.8,0.,4.8,0.,4.8,0.,4.8
1981-08-26 15:24:09.570 ,2,0,0.,4.8,0.,4.8,0.,4.8,0.,4.8
1981-08-26 15:24:14.370 ,2,0,0.,4.8,0.,4.8,0.,4.8,0.,4.8
1981-08-26 15:24:19.170 ,2,0,0.,4.8,0.,4.8,0.,4.8,0.,4.8
1981-08-26 15:24:23.970 ,2,0,0.,4.8,0.,4.8,0.,4.8,0.,4.8
1981-08-26 15:24:28.770 ,2,0,0.,4.8,0.,4.8,0.,4.8,0.,4.8
1981-08-26 15:24:33.570 ,2,0,0.,4.8,0.,4.8,0.,4.8,0.,4.8
1981-08-26 15:24:38.370 ,2,0,0.,4.8,0.,4.8,0.,4.8,0.,4.8
1981-08-26 15:24:43.170 ,2,0,0.,4.8,0.,4.8,0.,4.8,0.,4.8
1981-08-26 15:24:47.970 ,1,0,0.,4.8,0.,4.8,0.,4.8,0.,4.8
1981-08-26 15:24:52.770 ,1,0,0.,4.8,0.,4.8,0.,4.8,0.,4.8
1981-08-26 15:24:57.570 ,1,0,0.,4.8,0.,4.8,0.,4.8,0.,4.8
1981-08-26 15:25:02.370 ,1,0,0.,4.8,0.,4.8,0.,4.8,0.,4.8
1981-08-26 15:25:07.170 ,1,0,0.,4.8,0.,4.8,0.,4.8,0.,4.8
1981-08-26 15:25:11.970 ,1,0,0.,4.8,0.,4.8,0.,4.8,0.,4.8
1981-08-26 15:25:16.770 ,1,0,0.,4.8,0.,4.8,0.,4.8,0.,4.8
1981-08-26 15:25:21.570 ,1,0,0.,4.8,0.,4.8,0.,4.8,0.,4.8
1981-08-26 15:25:26.370 ,1,0,0.,4.8,0.,4.8,0.,4.8,0.,4.8
1981-08-26 15:25:31.170 ,1,0,0.,4.8,0.,4.8,0.,4.8,0.,4.8
1981-08-26 15:25:35.970 ,0,0,0.,4.8,0.,4.8,0.,4.8,0.,4.8
1981-08-26 15:25:40.770 ,0,0,0.,4.8,0.,4.8,0.,4.8,0.,4.8
1981-08-26 15:25:45.570 ,0,0,0.,4.8,0.,4.8,0.,4.8,0.,4.8
1981-08-26 15:25:50.370 ,0,0,0.,4.8,0.,4.8,0.,4.8,0.,4.8
1981-08-26 15:25:55.170 ,0,0,0.,4.8,0.,4.8,0.,4.8,0.,4.8
1981-08-26 15:25:59.970 ,0,0,0.,4.8,0.,4.8,0.,4.8,0.,4.8
1981-08-26 15:26:04.770 ,0,0,0.,4.8,0.,4.8,0.,4.8,0.,4.8
1981-08-26 15:26:09.570 ,0,0,0.,4.8,0.,4.8,0.,4.8,0.,4.8
1981-08-26 15:26:14.370 ,0,0,0.,4.8,0.,4.8,0.,4.8,0.,4.8
1981-08-26 15:26:19.170 ,0,0,0.,4.8,0.,4.8,0.,4.8,0.,4.8
1981-08-26 15:26:23.970 ,0,0,0.,4.8,0.,4.8,0.,4.8,0.,4.8
1981-08-26 15:26:28.770 ,0,0,0.,4.8,0.,4.8,0.,4.8,0.,4.8
1981-08-26 15:26:33.570 ,0,0,0.,4.8,0.,4.8,0.,4.8,0.,4.8
1981-08-26 15:26:38.370 ,0,0,0.,4.8,0.,4.8,0.,4.8,0.,4.8
1981-08-26 15:26:43.170 ,0,0,0.,4.8,0.,4.8,0.,4.8,0.,4.8
1981-08-26 15:26:47.970 ,0,0,0.,4.8,0.,4.8,0.,4.8,0.,4.8
1981-08-26 15:26:52.770 ,0,0,0.,4.8,0.,4.8,0.,4.8,0.,4.8
1981-08-26 15:26:57.570 ,0,0,0.,4.8,0.,4.8,0.,4.8,0.,4.8
1981-08-26 15:27:02.370 ,0,0,0.,4.8,0.,4.8,0.,4.8,0.,4.8
1981-08-26 15:27:07.170 ,0,0,0.,4.8,0.,4.8,0.,4.8,0.,4.8
1981-08-26 15:27:11.970 ,1,0,0.,4.8,0.,4.8,0.,4.8,0.,4.8
1981-08-26 15:27:16.770 ,1,0,0.,4.8,0.,4.8,0.,4.8,0.,4.8
1981-08-26 15:27:21.570 ,1,0,0.,4.8,0.,4.8,0.,4.8,0.,4.8
1981-08-26 15:27:26.370 ,1,0,0.,4.8,0.,4.8,0.,4.8,0.,4.8
1981-08-26 15:27:31.170 ,1,0,0.,4.8,0.,4.8,0.,4.8,0.,4.8
1981-08-26 15:27:35.970 ,1,0,0.,4.8,0.,4.8,0.,4.8,0.,4.8
1981-08-26 15:27:40.770 ,1,0,0.,4.8,0.,4.8,0.,4.8,0.,4.8
1981-08-26 15:27:45.570 ,1,0,0.,4.8,0.,4.8,0.,4.8,0.,4.8
1981-08-26 15:27:50.370 ,1,0,0.,4.8,0.,4.8,0.,4.8,0.,4.8
1981-08-26 15:27:55.170 ,1,0,0.,4.8,0.,4.8,0.,4.8,0.,4.8
1981-08-26 15:27:59.970 ,2,0,0.,4.8,0.,4.8,0.,4.8,0.,4.8
1981-08-26 15:28:04.770 ,2,0,0.,4.8,0.,4.8,0.,4.8,0.,4.8
1981-08-26 15:28:09.570 ,2,0,0.,4.8,0.,4.8,0.,4.8,0.,4.8
1981-08-26 15:28:14.370 ,2,0,0.,4.8,0.,4.8,0.,4.8,0.,4.8
1981-08-26 15:28:19.170 ,2,0,0.,4.8,0.,4.8,0.,4.8,0.,4.8
1981-08-26 15:28:23.970 ,2,0,0.,4.8,0.,4.8,0.,4.8,0.,4.8
1981-08-26 15:28:28.770 ,2,0,0.,4.8,0.,4.8,0.,4.8,0.,4.8
1981-08-26 15:28:33.570 ,2,0,0.,4.8,0.,4.8,0.,4.8,0.,4.8
1981-08-26 15:28:38.370 ,2,0,0.,4.8,0.,4.8,0.,4.8,0.,4.8
1981-08-26 15:28:43.170 ,2,0,0.,4.8,0.,4.8,0.,4.8,0.,4.8
1981-08-26 15:28:47.970 ,3,0,0.,4.8,0.,4.8,0.,4.8,0.,4.8
1981-08-26 15:28:52.770 ,3,0,0.,4.8,0.,4.8,0.,4.8,0.,4.8
1981-08-26 15:28:57.570 ,3,0,0.,4.8,0.,4.8,0.,4.8,0.,4.8
1981-08-26 15:29:02.370 ,3,0,0.,4.8,0.,4.8,0.,4.8,0.,4.8
1981-08-26 15:29:07.170 ,3,0,0.,4.8,0.,4.8,0.,4.8,0.,4.8
1981-08-26 15:29:11.970 ,3,0,0.,4.8,0.,4.8,0.,4.8,0.,4.8
1981-08-26 15:29:16.770 ,3,0,0.,4.8,0.,4.8,0.,4.8,0.,4.8
1981-08-26 15:29:21.570 ,3,0,0.,4.8,0.,4.8,0.,4.8,0.,4.8
1981-08-26 15:29:26.370 ,3,0,0.,4.8,0.,4.8,0.,4.8,0.,4.8
1981-08-26 15:29:31.170 ,3,0,0.,4.8,0.,4.8,0.,4.8,0.,4.8
1981-08-26 15:29:35.970 ,4,0,0.,4.8,0.,4.8,0.,4.8,0.,4.8
1981-08-26 15:29:40.770 ,4,0,0.,4.8,0.,4.8,0.,4.8,0.,4.8
1981-08-26 15:29:45.570 ,4,0,0.,4.8,0.,4.8,0.,4.8,0.,4.8
1981-08-26 15:29:50.370 ,4,0,0.,4.8,0.,4.8,0.,4.8,0.,4.8
1981-08-26 15:29:55.170 ,4,0,0.,4.8,0.,4.8,0.,4.8,0.,4.8
1981-08-26 15:29:59.970 ,4,0,0.,4.8,0.,4.8,0.,4.8,0.,4.8
1981-08-26 15:30:04.770 ,4,0,0.,4.8,0.,4.8,0.,4.8,0.,4.8
1981-08-26 15:30:09.570 ,4,0,0.,4.8,0.,4.8,0.,4.8,0.,4.8
1981-08-26 15:30:14.370 ,4,0,0.,4.8,0.,4.8,0.,4.8,0.,4.8
1981-08-26 15:30:19.170 ,4,0,0.,4.8,0.,4.8,0.,4.8,0.,4.8
1981-08-26 15:30:23.970 ,5,0,0.,4.8,0.,4.8,0.,4.8,0.,4.8
1981-08-26 15:30:28.770 ,5,0,0.,4.8,0.,4.8,0.,4.8,0.,4.8
1981-08-26 15:30:33.570 ,5,0,0.,4.8,0.,4.8,0.,4.8,0.,4.8
1981-08-26 15:30:38.370 ,5,0,0.,4.8,0.,4.8,0.,4.8,0.,4.8
1981-08-26 15:30:43.170 ,5,0,0.,4.8,0.,4.8,0.,4.8,0.,4.8
1981-08-26 15:30:47.970 ,5,0,0.,4.8,0.,4.8,0.,4.8,0.,4.8
1981-08-26 15:30:52.770 ,5,0,0.,4.8,0.,4.8,0.,4.8,0.,4.8
1981-08-26 15:30:57.570 ,5,0,0.,4.8,0.,4.8,0.,4.8,0.,4.8
1981-08-26 15:31:02.370 ,5,0,0.,4.8,0.,4.8,0.,4.8,0.,4.8
1981-08-26 15:31:07.170 ,5,0,0.,4.8,0.,4.8,0.,4.8,0.,4.8
1981-08-26 15:31:11.970 ,6,0,0.,4.8,0.,4.8,0.,4.8,0.,4.8
1981-08-26 15:31:16.770 ,6,0,0.,4.8,0.,4.8,0.,4.8,0.,4.8
1981-08-26 15:31:21.570 ,6,0,0.,4.8,0.,4.8,0.,4.8,0.,4.8
1981-08-26 15:31:26.370 ,6,0,0.,4.8,0.,4.8,0.,4.8,0.,4.8
1981-08-26 15:31:31.170 ,6,0,0.,4.8,0.,4.8,0.,4.8,0.,4.8
1981-08-26 15:31:35.970 ,6,0,0.,4.8,0.,4.8,0.,4.8,0.,4.8
1981-08-26 15:31:40.770 ,6,0,0.,4.8,0.,4.8,0.,4.8,0.,4.8
1981-08-26 15:31:45.570 ,6,0,0.,4.8,0.,4.8,0.,4.8,0.,4.8
1981-08-26 15:31:50.370 ,6,0,0.,4.8,0.,4.8,0.,4.8,0.,4.8
1981-08-26 15:31:55.170 ,6,0,0.,4.8,0.,4.8,0.,4.8,0.,4.8
1981-08-26 15:31:59.970 ,7,0,0.,4.8,0.,4.8,0.,4.8,0.,4.8
1981-08-26 15:32:04.770 ,7,0,0.,4.8,0.,4.8,0.,4.8,0.,4.8
1981-08-26 15:32:09.570 ,7,0,0.,4.8,0.,4.8,0.,4.8,0.,4.8
1981-08-26 15:32:14.370 ,7,0,0.,4.8,0.,4.8,0.,4.8,0.,4.8
1981-08-26 15:32:19.170 ,7,0,0.,4.8,0.,4.8,0.,4.8,0.,4.8
1981-08-26 15:32:23.970 ,7,0,0.,4.8,0.,4.8,0.,4.8,0.,4.8
1981-08-26 15:32:28.770 ,7,0,0.,4.8,0.,4.8,0.,4.8,0.,4.8
1981-08-26 15:32:33.570 ,7,0,0.,4.8,0.,4.8,0.,4.8,0.,4.8
1981-08-26 15:32:38.370 ,7,0,0.,4.8,0.,4.8,0.,4.8,0.,4.8
1981-08-26 15:32:43.170 ,7,0,0.,4.8,0.,4.8,0.,4.8,0.,4.8
1981-08-26 15:32:47.970 ,7,0,0.,4.8,0.,4.8,0.,4.8,0.,4.8
1981-08-26 15:32:52.770 ,7,0,0.,4.8,0.,4.8,0.,4.8,0.,4.8
1981-08-26 15:32:57.570 ,7,0,0.,4.8,0.,4.8,0.,4.8,0.,4.8
1981-08-26 15:33:02.370 ,7,0,0.,4.8,0.,4.8,0.,4.8,0.,4.8
1981-08-26 15:33:07.170 ,7,0,0.,4.8,0.,4.8,0.,4.8,0.,4.8
1981-08-26 15:33:11.970 ,7,0,0.,4.8,0.,4.8,0.,4.8,0.,4.8
1981-08-26 15:33:16.770 ,7,0,0.,4.8,0.,4.8,0.,4.8,0.,4.8